Wind_Speed
29 28 29 29 29 29 28 26 23 21 20 19 19 19 20 19 19 18 17 17 16 15 15 15 15 15 15 15 16 17 17 19 20 19 19 19 19 19 19 19 19 20 20 20
30 30 29 29 29 29 28 26 25 22 20 19 20 20 20 20 20 19 18 17 17 16 15 15 15 14 15 15 15 16 16 17 18 18 18 19 19 19 19 19 19 20 21 21
29 30 30 31 30 28 27 26 24 22 20 20 20 20 20 20 21 20 19 18 18 17 16 15 15 14 14 15 15 16 17 17 18 17 17 18 18 18 18 19 19 19 20 20
28 30 31 29 29 28 26 25 24 23 22 21 20 20 20 20 21 20 19 18 18 17 16 15 15 15 14 14 15 16 16 17 18 18 18 18 18 18 18 19 19 19 19 20
29 29 29 30 29 28 26 25 24 23 22 22 21 21 21 20 20 21 20 19 19 18 17 16 16 15 15 15 15 15 16 16 17 18 18 18 18 18 18 18 19 20 20 21
30 28 29 29 28 26 25 25 24 23 23 23 22 22 21 20 20 21 21 20 20 19 18 17 17 16 16 15 15 15 15 16 17 17 18 18 18 18 19 18 19 19 19 19
30 29 29 29 28 27 27 25 24 24 24 23 23 23 21 21 20 21 21 21 21 20 19 18 17 17 16 15 15 15 16 16 16 17 18 18 17 18 18 18 18 18 19 19
30 31 31 29 29 29 28 25 24 24 24 23 23 23 22 21 20 20 20 21 21 20 19 19 18 17 16 16 16 16 16 16 17 17 17 17 17 17 17 17 18 19 19 20
31 31 29 29 29 29 27 26 25 24 24 24 24 23 22 21 20 20 19 19 19 19 19 18 18 18 18 18 17 17 17 17 17 17 17 17 17 18 18 19 19 19 19 20
30 28 28 28 29 29 28 26 25 25 24 24 24 22 21 21 20 19 19 19 19 19 18 18 18 18 18 18 18 18 17 17 17 18 18 19 19 19 20 20 20 20 21 21
28 28 28 28 28 28 28 27 26 25 24 24 23 23 21 20 20 19 19 19 19 19 19 19 18 18 18 18 18 18 18 18 19 19 20 20 20 20 20 21 22 22 23 23
29 28 27 27 28 29 28 27 26 25 24 24 23 22 22 21 20 19 19 19 19 19 19 19 19 18 18 18 19 19 19 20 20 20 20 21 21 21 22 23 23 24 25 25
28 28 27 26 27 27 27 27 26 25 25 24 24 23 22 21 20 20 19 19 19 20 20 20 19 19 19 20 20 20 20 21 21 21 21 22 22 23 23 24 25 26 26 26
28 28 27 27 27 26 26 26 26 26 25 24 24 23 22 21 21 20 19 19 19 19 20 20 19 19 19 20 20 20 20 20 21 22 22 22 23 24 24 25 25 26 27 27
28 28 27 26 26 26 26 26 25 25 25 25 24 22 21 21 20 20 19 20 19 19 19 19 19 19 19 19 20 20 20 20 21 22 22 23 24 24 24 25 25 26 27 28
27 27 27 26 26 26 26 25 24 25 25 24 23 22 21 21 21 20 20 20 20 20 21 21 20 20 19 19 20 20 20 21 22 22 22 23 23 24 24 24 25 25 25 26
27 27 27 27 27 27 26 24 22 23 24 23 23 22 21 21 21 20 21 21 21 20 20 20 19 19 18 18 19 19 19 20 21 21 21 21 22 23 23 24 25 25 26 26
26 26 26 26 26 26 24 23 23 23 23 23 22 22 21 20 20 19 19 20 20 20 19 18 18 18 18 18 18 18 18 19 19 20 21 22 23 23 24 25 26 27 28 28
24 24 25 25 25 24 24 24 23 22 22 23 22 22 21 20 19 19 18 19 19 18 17 18 18 18 18 18 18 18 18 19 20 20 21 22 23 24 24 25 26 27 28 29
23 24 24 25 24 23 23 24 23 22 22 21 21 20 20 19 19 18 18 18 18 18 17 18 18 18 18 18 18 19 19 20 20 21 22 23 24 24 25 26 26 27 28 30
23 22 22 23 22 22 21 21 22 21 21 20 20 20 20 19 19 18 18 17 17 17 17 17 17 18 18 18 19 19 20 21 21 22 22 23 24 25 26 27 28 29 30 30
21 21 21 21 20 19 20 20 21 20 19 18 17 16 16 16 16 17 16 16 16 17 17 17 18 18 19 19 20 20 20 21 21 22 23 24 24 25 25 26 27 28 29 30
20 20 20 20 20 19 19 20 20 19 17 16 16 15 15 15 15 15 15 16 16 17 17 16 16 17 18 18 19 20 20 21 21 22 23 24 24 25 26 26 27 28 28 29
21 20 19 19 19 18 18 19 19 17 17 16 16 15 15 15 15 15 15 16 16 17 17 17 17 17 18 18 19 20 20 21 22 23 23 24 25 26 27 28 28 28 29 30
19 18 18 18 18 18 18 17 17 16 16 15 14 14 14 14 14 14 14 14 15 15 16 17 17 18 18 19 19 20 21 21 22 23 24 25 26 26 27 28 28 29 29 30
17 16 16 15 15 15 15 14 14 13 13 13 13 13 13 13 13 13 14 14 15 15 16 17 18 18 18 19 19 20 21 22 23 24 25 25 26 27 28 28 29 29 30 30
16 15 14 14 13 13 12 12 12 12 11 11 11 11 11 11 12 13 13 14 15 16 17 17 17 18 18 19 20 21 22 22 23 24 25 26 27 27 28 29 29 30 30 31
Wind_Direction
212 217 221 221 221 221 223 223 227 229 228 233 234 233 234 236 239 243 245 246 250 251 253 258 257 254 249 249 247 244 241 238 236 236 237 239 241 243 244 243 243 243 244 242
214 217 219 221 220 221 223 223 224 226 228 229 233 234 234 236 238 242 244 246 248 249 252 257 257 256 249 246 246 242 240 237 234 232 235 238 241 244 245 244 244 244 244 243
215 217 219 222 220 221 222 223 224 227 227 228 232 234 234 234 236 239 242 245 247 247 251 254 253 255 253 249 247 244 241 238 235 234 236 238 241 244 245 244 245 245 244 244
214 217 219 221 220 221 223 223 224 227 226 227 230 231 232 233 235 236 240 243 245 245 248 249 250 252 253 252 250 244 242 241 238 237 238 240 242 245 246 246 247 247 248 247
214 218 221 222 220 220 221 223 224 225 226 225 226 229 231 232 235 234 237 241 244 244 245 248 249 250 249 251 250 247 244 242 241 242 243 243 245 245 245 249 249 249 249 249
215 217 223 225 220 220 221 223 223 224 224 225 226 229 231 232 234 235 235 238 242 242 245 249 249 249 249 249 246 244 243 243 244 244 244 245 247 247 249 251 253 252 249 248
217 219 223 223 218 218 221 222 222 223 224 225 226 229 231 233 234 235 236 239 241 242 245 248 248 247 247 246 245 244 244 243 244 245 245 245 246 248 249 250 251 251 249 248
217 220 222 219 217 217 219 220 222 223 223 225 228 230 233 234 234 234 237 239 241 241 241 243 244 246 245 245 244 244 246 246 247 248 247 245 247 249 249 250 252 250 248 249
217 218 219 219 217 218 219 220 221 223 223 226 228 231 232 233 233 235 236 238 238 237 237 239 242 244 245 246 246 246 247 247 247 248 247 247 248 249 250 252 252 251 251 253
216 216 216 216 216 217 218 218 220 222 224 227 230 231 231 232 234 234 235 235 234 235 236 238 240 243 246 246 247 248 249 249 250 251 252 251 251 251 252 253 252 254 256 257
213 213 214 215 215 215 216 218 220 222 225 228 230 230 230 230 230 233 236 234 234 237 236 238 241 245 246 246 248 251 251 252 255 257 257 258 258 257 257 255 253 254 256 258
210 209 211 212 212 213 215 217 218 220 221 223 226 226 228 228 228 231 233 234 236 238 239 242 245 248 249 249 249 251 252 254 257 259 258 258 260 260 261 259 257 258 260 261
207 208 210 210 211 211 213 216 218 218 220 222 225 227 228 227 227 229 230 233 235 237 240 243 247 250 250 251 252 254 254 256 258 260 260 261 261 263 262 261 259 259 259 261
205 206 208 209 211 212 214 216 219 219 221 224 226 227 227 225 226 229 231 234 237 240 241 243 247 250 252 253 253 256 257 259 261 262 262 262 262 262 261 260 260 260 259 259
201 203 205 208 211 213 214 215 217 220 221 221 222 222 222 225 229 231 233 236 238 240 241 245 249 253 254 255 255 257 258 259 261 262 262 262 262 261 260 261 261 262 263 264
201 203 206 208 211 212 212 213 217 219 220 220 221 223 224 227 231 235 237 237 240 243 244 247 250 252 253 254 254 256 258 260 262 262 264 264 265 265 264 265 266 266 266 268
203 206 207 208 209 209 209 211 215 216 217 219 221 224 226 230 233 236 238 239 241 243 243 246 250 252 255 257 258 259 261 263 266 266 267 267 269 270 269 268 268 269 270 271
202 203 204 204 204 204 207 210 212 214 216 218 221 226 229 232 235 236 237 238 240 241 243 246 249 253 256 259 260 261 263 265 267 267 267 268 270 271 271 270 271 271 272 274
201 202 201 200 201 204 208 211 212 213 216 218 221 226 229 233 234 234 235 235 238 240 241 246 250 254 257 259 261 263 265 267 268 268 268 269 270 272 273 274 274 274 275 276
194 196 196 198 201 204 205 206 209 212 216 219 223 226 228 230 230 232 235 239 240 241 242 245 250 254 257 259 261 264 268 270 272 272 271 272 272 272 274 275 276 276 276 277
189 190 190 193 197 202 204 207 209 210 214 219 221 224 226 227 229 232 236 239 243 245 246 247 251 254 255 258 262 266 269 272 274 275 276 277 277 276 276 276 276 277 278 279
185 187 190 193 196 201 205 207 207 209 214 216 216 221 225 228 230 233 237 241 245 247 249 251 254 256 257 260 263 266 270 273 275 276 278 278 278 279 279 280 280 281 282 284
183 186 190 193 196 201 205 205 207 209 212 214 219 223 226 229 230 233 240 244 247 249 252 256 257 258 260 263 267 270 275 277 279 280 281 282 282 282 283 284 285 285 286 287
182 185 188 191 195 198 201 203 205 208 212 216 220 225 228 231 234 237 242 246 249 251 254 257 261 265 269 272 275 278 280 281 282 284 284 284 285 285 286 287 288 289 290 291
182 184 185 190 194 197 200 202 205 209 213 217 223 226 230 234 238 241 244 249 253 255 258 262 267 270 273 276 278 281 282 283 284 284 285 286 287 288 289 290 291 292 293 294
179 183 186 188 191 195 199 202 205 208 213 218 226 231 234 237 240 244 248 253 258 260 262 266 270 272 275 278 281 283 285 286 286 286 287 289 290 291 292 292 292 293 294 294
181 184 188 190 192 195 199 202 204 207 212 218 221 226 232 237 243 249 254 259 261 263 266 270 274 277 280 283 285 287 288 289 290 291 291 292 293 293 293 293 294 294 295 295
Height
5762 5766 5770 5775 5779 5784 5788 5794 5799 5803 5805 5807 5808 5810 5812 5814 5816 5817 5818 5820 5821 5822 5822 5822 5822 5822 5822 5824 5824 5825 5827 5828 5830 5833 5835 5837 5839 5840 5842 5842 5844 5845 5847 5848
5756 5760 5765 5769 5774 5778 5783 5788 5793 5797 5800 5802 5803 5805 5807 5809 5811 5813 5814 5815 5816 5817 5818 5818 5818 5818 5819 5820 5821 5822 5823 5825 5826 5828 5831 5833 5835 5837 5838 5839 5840 5841 5843 5844
5751 5755 5759 5764 5769 5773 5778 5783 5787 5791 5795 5796 5798 5801 5803 5805 5807 5808 5809 5811 5812 5813 5814 5815 5815 5815 5815 5816 5817 5818 5820 5821 5823 5825 5827 5829 5831 5832 5833 5834 5836 5837 5838 5840
5746 5751 5754 5761 5764 5769 5773 5777 5782 5785 5789 5791 5793 5796 5798 5800 5802 5804 5805 5807 5808 5809 5810 5811 5812 5812 5813 5813 5814 5815 5816 5818 5820 5822 5824 5826 5827 5828 5829 5830 5831 5833 5834 5835
5741 5745 5750 5754 5759 5763 5768 5772 5776 5780 5783 5786 5788 5791 5793 5795 5797 5799 5801 5802 5804 5805 5807 5807 5808 5809 5810 5810 5811 5812 5813 5815 5817 5819 5820 5822 5823 5824 5825 5826 5827 5828 5830 5831
5735 5740 5745 5750 5754 5758 5764 5767 5771 5774 5777 5780 5783 5786 5789 5791 5792 5794 5796 5798 5799 5801 5802 5804 5805 5806 5807 5807 5808 5809 5810 5812 5813 5815 5816 5818 5819 5820 5821 5822 5823 5824 5825 5826
5728 5734 5739 5743 5748 5754 5759 5763 5766 5769 5772 5775 5778 5782 5784 5786 5787 5789 5791 5793 5795 5797 5798 5800 5801 5802 5803 5804 5805 5806 5807 5808 5810 5811 5812 5813 5814 5816 5817 5818 5819 5820 5821 5822
5722 5728 5734 5737 5742 5747 5752 5757 5760 5764 5767 5770 5773 5776 5778 5780 5782 5784 5786 5788 5790 5792 5794 5795 5797 5798 5799 5800 5801 5802 5803 5805 5806 5807 5808 5809 5810 5811 5812 5813 5814 5815 5816 5817
5716 5722 5727 5731 5736 5742 5746 5751 5755 5758 5762 5765 5768 5770 5773 5776 5778 5780 5781 5783 5785 5787 5789 5790 5792 5794 5795 5796 5797 5799 5800 5800 5801 5803 5803 5804 5805 5807 5808 5809 5810 5810 5811 5812
5710 5715 5721 5726 5731 5736 5741 5745 5749 5753 5757 5760 5763 5766 5768 5771 5773 5775 5777 5778 5780 5782 5784 5786 5788 5789 5790 5792 5793 5794 5795 5796 5797 5798 5799 5800 5800 5801 5802 5803 5804 5805 5806 5806
5704 5710 5715 5720 5725 5730 5735 5740 5744 5747 5751 5754 5758 5761 5763 5766 5768 5770 5772 5774 5775 5777 5779 5781 5783 5784 5786 5787 5788 5789 5790 5791 5792 5792 5793 5794 5795 5795 5796 5797 5798 5799 5799 5799
5699 5705 5710 5715 5720 5725 5730 5734 5738 5742 5746 5749 5752 5755 5758 5761 5763 5765 5767 5769 5771 5773 5774 5776 5778 5779 5781 5782 5783 5784 5785 5786 5786 5787 5787 5788 5789 5789 5790 5791 5791 5792 5792 5793
5694 5699 5705 5710 5715 5719 5724 5728 5732 5736 5740 5744 5747 5750 5753 5756 5758 5760 5762 5764 5766 5768 5770 5772 5773 5775 5776 5777 5778 5779 5779 5780 5781 5781 5781 5782 5783 5783 5783 5784 5784 5785 5785 5786
5689 5694 5700 5705 5710 5714 5719 5723 5727 5731 5735 5738 5742 5745 5747 5751 5753 5756 5758 5760 5762 5764 5765 5767 5769 5770 5771 5772 5772 5773 5774 5774 5775 5775 5775 5776 5776 5776 5776 5777 5777 5777 5778 5778
5684 5690 5695 5700 5705 5709 5714 5719 5723 5726 5730 5733 5737 5740 5742 5746 5749 5751 5754 5756 5757 5759 5761 5762 5764 5765 5766 5766 5767 5768 5768 5769 5769 5769 5769 5769 5769 5769 5769 5769 5770 5770 5770 5770
5681 5686 5691 5696 5700 5705 5710 5714 5718 5721 5725 5728 5732 5735 5738 5741 5744 5747 5749 5751 5753 5754 5756 5757 5759 5760 5760 5761 5762 5762 5763 5763 5763 5763 5763 5762 5762 5762 5762 5763 5763 5763 5763 5763
5677 5682 5687 5691 5696 5701 5705 5709 5713 5716 5720 5724 5727 5731 5734 5737 5739 5742 5744 5746 5747 5749 5750 5751 5753 5754 5755 5755 5756 5756 5757 5757 5757 5756 5757 5757 5757 5756 5756 5756 5756 5756 5756 5755
5673 5678 5682 5687 5692 5696 5701 5705 5709 5712 5716 5720 5723 5726 5729 5732 5734 5736 5738 5740 5742 5744 5745 5746 5747 5749 5749 5750 5750 5751 5751 5751 5751 5751 5751 5751 5751 5750 5750 5750 5749 5749 5748 5747
5669 5674 5678 5683 5688 5693 5697 5701 5705 5709 5712 5716 5719 5722 5725 5727 5729 5732 5734 5735 5737 5738 5740 5741 5742 5743 5744 5744 5745 5745 5745 5745 5745 5745 5745 5745 5744 5744 5743 5742 5742 5741 5740 5739
5667 5671 5676 5681 5685 5690 5694 5698 5702 5705 5709 5712 5715 5718 5721 5723 5725 5727 5729 5730 5732 5733 5735 5736 5737 5738 5739 5739 5740 5740 5740 5740 5739 5739 5739 5738 5738 5737 5736 5735 5734 5733 5732 5730
5665 5670 5674 5679 5683 5687 5691 5695 5699 5702 5705 5708 5712 5714 5717 5719 5721 5723 5724 5726 5727 5728 5730 5731 5732 5733 5733 5734 5734 5734 5734 5733 5733 5732 5732 5731 5731 5730 5729 5727 5726 5725 5723 5721
5664 5669 5673 5677 5681 5685 5689 5692 5696 5699 5702 5705 5708 5710 5713 5715 5717 5719 5720 5722 5723 5724 5725 5726 5727 5727 5728 5728 5728 5728 5728 5727 5726 5726 5725 5724 5723 5722 5721 5719 5718 5716 5714 5712
5663 5667 5671 5675 5679 5683 5686 5690 5693 5696 5699 5702 5705 5707 5709 5711 5713 5715 5717 5718 5719 5720 5721 5722 5722 5722 5723 5723 5722 5722 5721 5721 5720 5719 5718 5717 5716 5714 5713 5711 5709 5707 5705 5703
5663 5667 5670 5674 5678 5681 5684 5687 5690 5693 5696 5699 5701 5704 5706 5707 5709 5711 5712 5713 5714 5715 5716 5717 5717 5717 5717 5717 5716 5715 5715 5714 5713 5712 5711 5709 5708 5706 5704 5702 5700 5698 5696 5694
5663 5666 5669 5673 5676 5679 5682 5685 5688 5691 5693 5696 5698 5700 5702 5704 5705 5707 5708 5709 5710 5710 5711 5711 5712 5712 5711 5711 5710 5709 5708 5707 5706 5704 5703 5701 5700 5698 5696 5693 5691 5689 5687 5684
5663 5666 5669 5672 5675 5678 5680 5683 5686 5688 5691 5693 5695 5697 5698 5700 5701 5703 5704 5704 5705 5705 5706 5706 5706 5705 5705 5704 5703 5702 5701 5700 5698 5697 5695 5693 5691 5689 5687 5685 5683 5680 5677 5675
5663 5666 5669 5671 5674 5677 5679 5682 5684 5687 5689 5691 5692 5694 5695 5696 5697 5698 5699 5700 5700 5700 5700 5700 5700 5699 5698 5697 5696 5695 5694 5692 5691 5689 5687 5685 5683 5680 5678 5676 5673 5671 5668 5665